GPS BIIA-23 (PRN 18) (22877 NORAD) Tracking and Keplerian Element Data

This shows tracking and keplerian element data for the satellite.

Feedback or suggestion? Click here.




ElementValue
Catalog22877
NameGPS BIIA-23 (PRN 18)
Epoch Orbit19014
Epoch Day281.32454253
Epoch Year2019
RAAN63.9395
Inclination54.7691
Eccentricity0.015465
Argument of Perigee82.255
Mean Anonmoly318.2893
Mean Motion2.00563974
Decay Rate-3.5E-07
L11 22877U 93068A 19281.32454253 -.00000035 00000-0 00000+0 0 9999
L22 22877 54.7691 63.9395 0154650 82.2550 318.2893 2.00563974190143



Live tracking and technical data element details for GPS BIIA-23 (PRN 18) (NORAD 22877). GPS BIIA-23 (PRN 18) can be tracked NOW for your location showing map with azimuth and elevation plus other details from your city location.







IsCatalogInMostPopularTable: catalog: 22877, numindb: 723
Update: records affected: 1



GetName: 22877 GPS BIIA-23 (PRN 18)

Hit Count: updated at: Fri, 19 Apr 2024 11:49:57 GMT